| time (UTC) | temp F | wind direction | speed MPH | gust MPH | rain 1hr in | rain 24hr in | rain mn in | humidity % | barometer mb |
| 20260508180603 | 61 | 134 | 2.0 | 4.0 | 0.00 | 0.00 | 0.00 | 76 | 1009.5 |
| 20260508175600 | 62 | 87 | 2.0 | 7.0 | 0.00 | 0.00 | 0.00 | 75 | 1009.5 |
| 20260508174558 | 62 | 75 | 3.0 | 8.0 | 0.00 | 0.00 | 0.00 | 75 | 1009.4 |
| 20260508172553 | 63 | 252 | 2.0 | 6.0 | 0.00 | 0.00 | 0.00 | 72 | 1009.3 |
| 20260508171550 | 62 | 166 | 2.0 | 4.0 | 0.00 | 0.00 | 0.00 | 71 | 1009.3 |
| 20260508170547 | 62 | 69 | 2.0 | 7.0 | 0.00 | 0.00 | 0.00 | 71 | 1009.2 |
| 20260508165545 | 63 | 68 | 3.0 | 11.0 | 0.00 | 0.00 | 0.00 | 69 | 1009.1 |
| 20260508164542 | 63 | 193 | 2.0 | 4.0 | 0.00 | 0.00 | 0.00 | 68 | 1009.1 |
| 20260508163540 | 64 | 59 | 2.0 | 6.0 | 0.00 | 0.00 | 0.00 | 69 | 1009.1 |
| 20260508162537 | 63 | 64 | 4.0 | 11.0 | 0.00 | 0.00 | 0.00 | 69 | 1008.9 |
| 20260508161534 | 63 | 33 | 6.0 | 9.0 | 0.00 | 0.00 | 0.00 | 69 | 1008.9 |
| 20260508160532 | 64 | 41 | 5.0 | 11.0 | 0.00 | 0.00 | 0.00 | 70 | 1009.1 |
| 20260508155530 | 64 | 58 | 5.0 | 13.0 | 0.00 | 0.00 | 0.00 | 71 | 1009.2 |
| 20260508154527 | 64 | 47 | 4.0 | 9.0 | 0.00 | 0.00 | 0.00 | 70 | 1009.3 |
| 20260508153525 | 64 | 82 | 2.0 | 9.0 | 0.00 | 0.00 | 0.00 | 70 | 1009.2 |
| 20260508152522 | 65 | 134 | 3.0 | 7.0 | 0.00 | 0.00 | 0.00 | 70 | 1009.2 |
| 20260508151519 | 65 | 117 | 3.0 | 8.0 | 0.00 | 0.00 | 0.00 | 69 | 1009.2 |
| 20260508150517 | 66 | 139 | 3.0 | 7.0 | 0.00 | 0.00 | 0.00 | 67 | 1009.0 |
| 20260508145614 | 66 | 62 | 4.0 | 9.0 | 0.00 | 0.00 | 0.00 | 63 | 1009.0 |
| 20260508144612 | 66 | 43 | 5.0 | 14.0 | 0.00 | 0.00 | 0.00 | 63 | 1009.0 |
| 20260508143609 | 66 | 38 | 5.0 | 13.0 | 0.00 | 0.00 | 0.00 | 62 | 1009.0 |
| 20260508142607 | 65 | 57 | 4.0 | 9.0 | 0.00 | 0.00 | 0.00 | 64 | 1009.0 |
| 20260508141604 | 66 | 101 | 4.0 | 11.0 | 0.00 | 0.00 | 0.00 | 64 | 1009.2 |
| 20260508140601 | 66 | 36 | 6.0 | 11.0 | 0.00 | 0.00 | 0.00 | 62 | 1009.4 |
| 20260508135559 | 67 | 37 | 4.0 | 11.0 | 0.00 | 0.00 | 0.00 | 62 | 1009.6 |
| 20260508134556 | 67 | 86 | 2.0 | 9.0 | 0.00 | 0.00 | 0.00 | 61 | 1009.5 |
| 20260508133554 | 67 | 110 | 2.0 | 4.0 | 0.00 | 0.00 | 0.00 | 58 | 1009.7 |
| 20260508132551 | 67 | 106 | 2.0 | 6.0 | 0.00 | 0.00 | 0.00 | 60 | 1009.8 |
| 20260508131548 | 66 | 89 | 2.0 | 6.0 | 0.00 | 0.00 | 0.00 | 60 | 1009.8 |
| 20260508130546 | 65 | 54 | 5.0 | 14.0 | 0.00 | 0.00 | 0.00 | 59 | 1009.7 |
| 20260508125543 | 67 | 30 | 2.0 | 9.0 | 0.00 | 0.00 | 0.00 | 55 | 1009.5 |
| 20260508124541 | 66 | 53 | 4.0 | 11.0 | 0.00 | 0.00 | 0.00 | 54 | 1009.7 |
| 20260508123538 | 66 | 115 | 4.0 | 14.0 | 0.00 | 0.00 | 0.00 | 59 | 1009.8 |
| 20260508122538 | 66 | 359 | 2.0 | 6.0 | 0.00 | 0.00 | 0.00 | 63 | 1009.6 |
| 20260508121533 | 67 | 44 | 4.0 | 11.0 | 0.00 | 0.00 | 0.00 | 59 | 1009.7 |
| 20260508120530 | 66 | 189 | 3.0 | 7.0 | 0.00 | 0.00 | 0.00 | 61 | 1009.8 |
| 20260508115527 | 65 | 143 | 2.0 | 11.0 | 0.00 | 0.00 | 0.00 | 62 | 1009.8 |
| 20260508114525 | 65 | 61 | 2.0 | 8.0 | 0.00 | 0.00 | 0.00 | 64 | 1009.6 |
| 20260508113522 | 66 | 5 | 2.0 | 8.0 | 0.00 | 0.00 | 0.00 | 60 | 1009.7 |
| 20260508112520 | 66 | 33 | 2.0 | 9.0 | 0.00 | 0.00 | 0.00 | 59 | 1009.7 |
| 20260508111517 | 64 | 58 | 5.0 | 11.0 | 0.00 | 0.00 | 0.00 | 63 | 1009.6 |
| 20260508110615 | 64 | 192 | 2.0 | 6.0 | 0.00 | 0.00 | 0.00 | 65 | 1009.6 |
| 20260508105612 | 64 | 73 | 2.0 | 7.0 | 0.00 | 0.00 | 0.00 | 65 | 1009.6 |
| 20260508104609 | 64 | 24 | 4.0 | 7.0 | 0.00 | 0.00 | 0.00 | 67 | 1009.7 |
| 20260508103607 | 64 | 354 | 4.0 | 11.0 | 0.00 | 0.00 | 0.00 | 65 | 1009.9 |
| 20260508102604 | 64 | 35 | 1.0 | 4.0 | 0.00 | 0.00 | 0.00 | 66 | 1009.8 |
| 20260508101602 | 66 | 298 | 1.0 | 6.0 | 0.00 | 0.00 | 0.00 | 64 | 1010.1 |
| 20260508100559 | 65 | 18 | 2.0 | 6.0 | 0.00 | 0.00 | 0.00 | 65 | 1010.0 |
| 20260508095556 | 63 | 29 | 3.0 | 6.0 | 0.00 | 0.00 | 0.00 | 69 | 1010.0 |
| 20260508094554 | 63 | 19 | 3.0 | 9.0 | 0.00 | 0.00 | 0.00 | 67 | 1010.0 |
| 20260508093551 | 63 | 7 | 1.0 | 6.0 | 0.00 | 0.00 | 0.00 | 68 | 1010.1 |
| 20260508092548 | 64 | 161 | 1.0 | 6.0 | 0.00 | 0.00 | 0.00 | 66 | 1010.1 |
| 20260508091546 | 63 | 54 | 2.0 | 6.0 | 0.00 | 0.00 | 0.00 | 66 | 1009.9 |
| 20260508090543 | 63 | 71 | 2.0 | 4.0 | 0.00 | 0.00 | 0.00 | 64 | 1009.9 |
| 20260508085540 | 63 | 51 | 3.0 | 8.0 | 0.00 | 0.00 | 0.00 | 60 | 1009.8 |
| 20260508084538 | 63 | 51 | 2.0 | 8.0 | 0.00 | 0.00 | 0.00 | 59 | 1009.7 |
| 20260508083535 | 63 | 37 | 3.0 | 7.0 | 0.00 | 0.00 | 0.00 | 63 | 1009.6 |
| 20260508082533 | 63 | 10 | 3.0 | 8.0 | 0.00 | 0.00 | 0.00 | 62 | 1009.3 |
| 20260508081530 | 64 | 113 | 0.0 | 2.0 | 0.00 | 0.00 | 0.00 | 60 | 1009.2 |
| 20260508080527 | 62 | 32 | 3.0 | 6.0 | 0.00 | 0.00 | 0.00 | 62 | 1009.1 |
| 20260508075525 | 63 | 110 | 1.0 | 4.0 | 0.00 | 0.00 | 0.00 | 60 | 1009.0 |
| 20260508074522 | 62 | 56 | 1.0 | 4.0 | 0.00 | 0.00 | 0.00 | 63 | 1009.0 |
| 20260508073520 | 63 | 105 | 1.0 | 4.0 | 0.00 | 0.00 | 0.00 | 61 | 1009.0 |
| 20260508072517 | 62 | 113 | 1.0 | 4.0 | 0.00 | 0.00 | 0.00 | 61 | 1008.8 |
| 20260508071514 | 62 | 68 | 0.0 | 2.0 | 0.00 | 0.00 | 0.00 | 62 | 1008.6 |
| 20260508070612 | 62 | 13 | 0.0 | 2.0 | 0.00 | 0.00 | 0.00 | 61 | 1008.5 |
| 20260508065610 | 60 | 351 | 1.0 | 4.0 | 0.00 | 0.00 | 0.00 | 64 | 1008.5 |
| 20260508064607 | 60 | 327 | 1.0 | 2.0 | 0.00 | 0.00 | 0.00 | 63 | 1008.6 |
| 20260508063604 | 59 | 16 | 2.0 | 4.0 | 0.00 | 0.00 | 0.00 | 62 | 1008.5 |
| 20260508062602 | 60 | 0.0 | 0.0 | 0.00 | 0.00 | 0.00 | 61 | 1008.5 | |
| 20260508061559 | 58 | 0.0 | 0.0 | 0.00 | 0.00 | 0.00 | 64 | 1008.4 | |
| 20260508060556 | 55 | 278 | 1.0 | 2.0 | 0.00 | 0.00 | 0.00 | 68 | 1008.3 |
| 20260508055554 | 53 | 230 | 1.0 | 2.0 | 0.00 | 0.00 | 0.00 | 73 | 1008.2 |
| 20260508054551 | 53 | 0.0 | 2.0 | 0.00 | 0.00 | 0.00 | 73 | 1008.4 | |
| 20260508053549 | 53 | 0.0 | 0.0 | 0.00 | 0.00 | 0.00 | 71 | 1008.1 | |
| 20260508052546 | 53 | 302 | 1.0 | 2.0 | 0.00 | 0.00 | 0.00 | 70 | 1008.0 |
| 20260508051543 | 53 | 296 | 2.0 | 2.0 | 0.00 | 0.00 | 0.00 | 70 | 1007.8 |
| 20260508050541 | 53 | 275 | 1.0 | 2.0 | 0.00 | 0.00 | 0.00 | 70 | 1007.7 |
| 20260508045538 | 52 | 269 | 1.0 | 2.0 | 0.00 | 0.00 | 0.00 | 72 | 1007.7 |
| 20260508044535 | 52 | 265 | 2.0 | 4.0 | 0.00 | 0.00 | 0.00 | 72 | 1007.8 |
| 20260508043533 | 53 | 240 | 2.0 | 4.0 | 0.00 | 0.00 | 0.00 | 71 | 1007.8 |
| 20260508042530 | 52 | 0.0 | 0.0 | 0.00 | 0.00 | 0.00 | 72 | 1007.7 | |
| 20260508041528 | 53 | 282 | 2.0 | 4.0 | 0.00 | 0.00 | 0.00 | 73 | 1007.6 |
| 20260508040525 | 52 | 315 | 1.0 | 2.0 | 0.00 | 0.00 | 0.00 | 76 | 1007.6 |
| 20260508035522 | 52 | 0.0 | 0.0 | 0.00 | 0.00 | 0.00 | 75 | 1007.4 | |
| 20260508034520 | 53 | 270 | 0.0 | 2.0 | 0.00 | 0.00 | 0.00 | 74 | 1007.5 |
| 20260508033517 | 53 | 315 | 0.0 | 2.0 | 0.00 | 0.00 | 0.00 | 74 | 1007.4 |
| 20260508032515 | 53 | 0.0 | 0.0 | 0.00 | 0.00 | 0.00 | 74 | 1007.6 | |
| 20260508031612 | 53 | 0.0 | 0.0 | 0.00 | 0.00 | 0.00 | 75 | 1007.6 | |
| 20260508030609 | 53 | 293 | 0.0 | 2.0 | 0.00 | 0.00 | 0.00 | 76 | 1007.7 |
| 20260508025607 | 53 | 0.0 | 0.0 | 0.00 | 0.00 | 0.00 | 76 | 1007.7 | |
| 20260508024604 | 53 | 0.0 | 0.0 | 0.00 | 0.00 | 0.00 | 77 | 1007.6 | |
| 20260508023602 | 53 | 0.0 | 0.0 | 0.00 | 0.00 | 0.00 | 77 | 1007.8 | |
| 20260508022559 | 54 | 0.0 | 0.0 | 0.00 | 0.00 | 0.00 | 76 | 1007.9 | |
| 20260508021556 | 54 | 0.0 | 2.0 | 0.00 | 0.00 | 0.00 | 74 | 1007.8 | |
| 20260508020554 | 55 | 248 | 0.0 | 2.0 | 0.00 | 0.00 | 0.00 | 73 | 1007.9 |
| 20260508015551 | 54 | 270 | 0.0 | 2.0 | 0.00 | 0.00 | 0.00 | 75 | 1008.0 |
| 20260508014549 | 55 | 271 | 1.0 | 2.0 | 0.00 | 0.00 | 0.00 | 75 | 1008.0 |
| 20260508013546 | 55 | 270 | 1.0 | 2.0 | 0.00 | 0.00 | 0.00 | 75 | 1008.1 |
| 20260508012543 | 55 | 259 | 0.0 | 2.0 | 0.00 | 0.00 | 0.00 | 77 | 1008.2 |
| 20260508011541 | 55 | 0.0 | 0.0 | 0.00 | 0.00 | 0.00 | 75 | 1008.3 | |
| 20260508010538 | 55 | 0.0 | 0.0 | 0.00 | 0.00 | 0.00 | 76 | 1008.4 | |
| 20260508005536 | 55 | 0.0 | 2.0 | 0.00 | 0.00 | 0.00 | 77 | 1008.4 | |
| 20260508004533 | 55 | 315 | 1.0 | 2.0 | 0.00 | 0.00 | 0.00 | 76 | 1008.4 |
| 20260508003530 | 55 | 0.0 | 2.0 | 0.00 | 0.00 | 0.00 | 78 | 1008.5 | |
| 20260508002528 | 55 | 248 | 0.0 | 2.0 | 0.00 | 0.00 | 0.00 | 76 | 1008.6 |
| 20260508001525 | 55 | 218 | 0.0 | 2.0 | 0.00 | 0.00 | 0.00 | 78 | 1008.7 |
| 20260508000522 | 56 | 0.0 | 2.0 | 0.00 | 0.00 | 0.00 | 73 | 1008.8 | |
| 20260507235520 | 56 | 272 | 1.0 | 2.0 | 0.00 | 0.00 | 0.00 | 75 | 1008.8 |
| 20260507234517 | 55 | 264 | 1.0 | 4.0 | 0.00 | 0.00 | 0.00 | 75 | 1009.0 |
| 20260507233514 | 56 | 197 | 1.0 | 4.0 | 0.00 | 0.00 | 0.00 | 77 | 1009.0 |
| 20260507232613 | 56 | 251 | 2.0 | 4.0 | 0.00 | 0.00 | 0.00 | 77 | 1009.0 |
| 20260507231610 | 55 | 281 | 1.0 | 4.0 | 0.00 | 0.00 | 0.00 | 80 | 1009.1 |
| 20260507230607 | 55 | 220 | 1.0 | 2.0 | 0.00 | 0.00 | 0.00 | 82 | 1009.2 |
| 20260507225604 | 55 | 293 | 1.0 | 2.0 | 0.00 | 0.00 | 0.00 | 84 | 1009.4 |
| 20260507224602 | 55 | 263 | 1.0 | 2.0 | 0.00 | 0.00 | 0.00 | 86 | 1009.5 |
| 20260507223559 | 56 | 0.0 | 0.0 | 0.00 | 0.00 | 0.00 | 86 | 1009.5 | |
| 20260507222557 | 56 | 273 | 1.0 | 2.0 | 0.00 | 0.00 | 0.00 | 86 | 1009.6 |
| 20260507221554 | 56 | 226 | 2.0 | 4.0 | 0.00 | 0.00 | 0.00 | 86 | 1009.6 |
| 20260507220551 | 56 | 232 | 2.0 | 4.0 | 0.00 | 0.00 | 0.00 | 86 | 1009.6 |
| 20260507215549 | 56 | 230 | 3.0 | 6.0 | 0.00 | 0.00 | 0.00 | 85 | 1009.7 |
| 20260507214546 | 56 | 270 | 2.0 | 4.0 | 0.00 | 0.00 | 0.00 | 85 | 1009.7 |
| 20260507213544 | 56 | 270 | 0.0 | 2.0 | 0.00 | 0.00 | 0.00 | 85 | 1009.6 |
| 20260507212541 | 56 | 287 | 2.0 | 2.0 | 0.00 | 0.00 | 0.00 | 85 | 1009.7 |
| 20260507211538 | 57 | 285 | 2.0 | 2.0 | 0.00 | 0.00 | 0.00 | 85 | 1009.6 |
| 20260507210536 | 57 | 304 | 1.0 | 2.0 | 0.00 | 0.00 | 0.00 | 85 | 1009.7 |
| 20260507205533 | 57 | 58 | 1.0 | 2.0 | 0.00 | 0.00 | 0.00 | 84 | 1009.7 |
| 20260507204530 | 57 | 146 | 0.0 | 2.0 | 0.00 | 0.00 | 0.00 | 84 | 1009.6 |
| 20260507203528 | 57 | 94 | 1.0 | 2.0 | 0.00 | 0.00 | 0.00 | 84 | 1009.6 |
| 20260507202525 | 57 | 90 | 0.0 | 2.0 | 0.00 | 0.00 | 0.00 | 83 | 1009.5 |
| 20260507201523 | 58 | 32 | 1.0 | 2.0 | 0.00 | 0.00 | 0.00 | 82 | 1009.5 |
| 20260507200520 | 58 | 0.0 | 2.0 | 0.00 | 0.00 | 0.00 | 82 | 1009.3 | |
| 20260507195517 | 58 | 30 | 0.0 | 2.0 | 0.00 | 0.00 | 0.00 | 81 | 1009.2 |
| 20260507194515 | 58 | 28 | 1.0 | 2.0 | 0.00 | 0.00 | 0.00 | 81 | 1009.0 |
| 20260507193612 | 58 | 350 | 2.0 | 6.0 | 0.00 | 0.00 | 0.00 | 80 | 1008.8 |
| 20260507192610 | 58 | 34 | 2.0 | 4.0 | 0.00 | 0.00 | 0.00 | 79 | 1008.6 |
| 20260507191607 | 58 | 97 | 1.0 | 4.0 | 0.00 | 0.00 | 0.00 | 79 | 1008.7 |
| 20260507190605 | 58 | 72 | 1.0 | 4.0 | 0.00 | 0.00 | 0.00 | 81 | 1008.5 |
| 20260507185602 | 58 | 348 | 1.0 | 4.0 | 0.00 | 0.00 | 0.00 | 81 | 1008.2 |
| 20260507184559 | 59 | 37 | 1.0 | 4.0 | 0.00 | 0.00 | 0.00 | 80 | 1008.2 |
| 20260507183557 | 59 | 153 | 2.0 | 6.0 | 0.00 | 0.00 | 0.00 | 79 | 1008.2 |
| 20260507182554 | 59 | 48 | 2.0 | 6.0 | 0.00 | 0.00 | 0.00 | 78 | 1008.0 |